When you browse on this site, cookies collect data to enhance your experience and personalize the content and advertising you see.
Visit our Privacy Policy to learn more. By continuing to use the site, you agree to this use of cookies and data.
  • In Hungary
  • List of Countries
  • For 7 days
  • Water Temperature
  • Weather Map
  • News
  • Weather Widgets
  • user-avatar
    Login

    Hourly Weather Vashkovcy

    Today, 9 December, Monday

    Time Temperature Precipitation Wind Pressure Humidity
    00:00 +2°C° 0 mm 3 mps 735 mmHg 86%
    01:00 +4°C° 0 mm 2 mps 735 mmHg 84%
    02:00 +4°C° 0 mm 2 mps 735 mmHg 83%
    03:00 +4°C° 0 mm 2 mps 735 mmHg 83%
    04:00 +4°C° 0 mm 2 mps 734 mmHg 83%
    05:00 +4°C° 0 mm 2 mps 734 mmHg 84%
    06:00 +4°C° 0 mm 2 mps 733 mmHg 85%
    07:00 +4°C° 0 mm 2 mps 734 mmHg 85%
    08:00 +3°C° 0 mm 2 mps 734 mmHg 87%
    09:00 +3°C° 0 mm 2 mps 734 mmHg 89%
    10:00 +4°C° 0 mm 2 mps 733 mmHg 91%
    11:00 +5°C° 0 mm 2 mps 733 mmHg 94%
    12:00 +7°C° 0 mm 1 mps 733 mmHg 96%
    13:00 +9°C° 0 mm 1 mps 733 mmHg 95%
    14:00 +8°C° 0 mm 3 mps 733 mmHg 93%
    15:00 +8°C° 0 mm 2 mps 733 mmHg 95%
    16:00 +7°C° 0 mm 2 mps 733 mmHg 98%
    17:00 +6°C° 0 mm 2 mps 733 mmHg 97%
    18:00 +5°C° 0 mm 2 mps 733 mmHg 98%
    19:00 +5°C° 0 mm 1 mps 734 mmHg 98%
    20:00 +5°C° 0 mm 1 mps 734 mmHg 99%
    21:00 +4°C° 0 mm 1 mps 734 mmHg 100%
    22:00 +3°C° 0 mm 1 mps 734 mmHg 100%
    23:00 +2°C° 0 mm 0 mps 734 mmHg 100%

    Tomorrow, 10 December, Tuesday

    Time Temperature Precipitation Wind Pressure Humidity
    00:00 +2°C° 0 mm 0 mps 734 mmHg 100%
    01:00 +2°C° 0 mm 0 mps 734 mmHg 100%
    02:00 +2°C° 0 mm 0 mps 734 mmHg 100%
    03:00 +3°C° 0 mm 1 mps 734 mmHg 100%
    04:00 +3°C° 0 mm 1 mps 734 mmHg 100%
    05:00 +3°C° 0 mm 1 mps 734 mmHg 100%
    06:00 +3°C° 0 mm 1 mps 735 mmHg 100%
    07:00 +3°C° 0 mm 1 mps 735 mmHg 100%
    08:00 +3°C° 0 mm 1 mps 735 mmHg 100%
    09:00 +3°C° 0 mm 1 mps 736 mmHg 100%
    10:00 +2°C° 0 mm 0 mps 736 mmHg 100%
    11:00 +3°C° 0 mm 1 mps 737 mmHg 100%
    12:00 +4°C° 0 mm 1 mps 737 mmHg 100%
    13:00 +4°C° 0 mm 1 mps 737 mmHg 100%
    14:00 +4°C° 0 mm 1 mps 737 mmHg 100%
    15:00 +3°C° 0 mm 0 mps 737 mmHg 100%
    16:00 +3°C° 0 mm 0 mps 737 mmHg 99%
    17:00 +3°C° 0 mm 0 mps 738 mmHg 99%
    18:00 +3°C° 0 mm 0 mps 738 mmHg 99%
    19:00 +3°C° 0.1 mm 0 mps 739 mmHg 100%
    20:00 +5°C° 0.5 mm 1 mps 740 mmHg 100%
    21:00 +4°C° 0.8 mm 2 mps 740 mmHg 100%
    22:00 +3°C° 1.1 mm 4 mps 740 mmHg 100%
    23:00 +1°C° 0.2 mm 4 mps 741 mmHg 100%

    Day after tomorrow, 11 December, Wednesday

    Time Temperature Precipitation Wind Pressure Humidity
    00:00 +1°C° 0.5 mm 4 mps 741 mmHg 100%
    01:00 +1°C° 0.3 mm 3 mps 741 mmHg 100%
    02:00 +1°C° 0.1 mm 3 mps 742 mmHg 100%
    03:00 +2°C° 0.2 mm 2 mps 742 mmHg 100%
    04:00 +4°C° 0.3 mm 1 mps 741 mmHg 100%
    05:00 +4°C° 0.2 mm 1 mps 742 mmHg 100%
    06:00 +3°C° 0.1 mm 1 mps 741 mmHg 100%
    07:00 +4°C° 0.1 mm 1 mps 742 mmHg 100%
    08:00 +3°C° 0.1 mm 1 mps 742 mmHg 100%
    09:00 +3°C° 0 mm 1 mps 742 mmHg 100%
    10:00 +3°C° 0 mm 1 mps 742 mmHg 100%
    11:00 +4°C° 0 mm 1 mps 742 mmHg 100%
    12:00 +4°C° 0.1 mm 1 mps 742 mmHg 100%
    13:00 +4°C° 0.1 mm 1 mps 742 mmHg 100%
    14:00 +3°C° 0 mm 2 mps 741 mmHg 100%
    15:00 +3°C° 0 mm 2 mps 741 mmHg 98%
    16:00 +3°C° 0 mm 2 mps 741 mmHg 99%
    17:00 +2°C° 0 mm 3 mps 740 mmHg 99%
    18:00 +1°C° 0 mm 4 mps 740 mmHg 98%
    19:00 +1°C° 0 mm 4 mps 740 mmHg 98%
    20:00 0°C° 0 mm 4 mps 740 mmHg 99%
    21:00 -1°C° 0 mm 4 mps 740 mmHg 99%
    22:00 -1°C° 0 mm 4 mps 739 mmHg 99%
    23:00 -1°C° 0 mm 5 mps 739 mmHg 99%

    12 December, Thursday

    Time Temperature Precipitation Wind Pressure Humidity
    00:00 -1°C° 0 mm 5 mps 739 mmHg 99%
    01:00 -1°C° 0 mm 4 mps 738 mmHg 99%
    02:00 -2°C° 0 mm 4 mps 738 mmHg 99%
    03:00 -1°C° 0 mm 3 mps 738 mmHg 99%
    04:00 -2°C° 0 mm 3 mps 737 mmHg 100%
    05:00 -2°C° 0 mm 3 mps 737 mmHg 100%
    06:00 -2°C° 0 mm 3 mps 737 mmHg 100%
    07:00 -2°C° 0 mm 3 mps 737 mmHg 100%
    08:00 -4°C° 0 mm 3 mps 737 mmHg 100%
    09:00 -4°C° 0 mm 3 mps 737 mmHg 100%
    10:00 -2°C° 0 mm 3 mps 737 mmHg 100%
    11:00 -2°C° 0 mm 4 mps 736 mmHg 99%
    12:00 -1°C° 0 mm 5 mps 736 mmHg 98%
    13:00 0°C° 0 mm 5 mps 736 mmHg 96%
    14:00 0°C° 0 mm 5 mps 736 mmHg 96%

    13 December, Friday

    Time Temperature Precipitation Wind Pressure Humidity

    14 December, Saturday

    Time Temperature Precipitation Wind Pressure Humidity
    Show more